Погода во Фритауне

Сьерра-Леоне     8°25′49″N   13°10′41″W
темп.,
°C
ветер,
м/с
пор.,
м/с
влажн.,
%
обл.,
%
осадки,
мм/ч
давл.,
гПа
погр.,
м
12 августа, пт
пт1200:00+24ююз579098 3.8 1015407
03:00+24ююз688798 2.1 1013516
06:00+24ююз5786100 2.6 1013470
09:00+25юз688299 0.6 1015855
12:00+26юз687490 0.8 1015889
15:00+26юз787351 0.1 1014974
18:00+26юз798055 0.5 1014810
21:00+25юз6983100 0.9 1015590
13 августа, сб
сб1300:00+25юз6984100 2.5 1015578
03:00+24юз6989100 1.9 1014523
06:00+23ююз6994100 10.1 1014651
09:00+23ююз5792100 4.8 1016483
12:00+24ю4791100 7.4 1016535
15:00+23ююз4692100 6.4 1014390
18:00+23юз5693100 13.7 1015393
21:00+23ююз4593100 20.6 1016398
14 августа, вс
вс1400:00+23юз4595100 44.3 1017331
03:00+23юз3595100 16.1 1015306
06:00+23юз4595100 27.8 1014328
09:00+23ююз3493100 7.3 1016289
12:00+24ююз2391100 11.3 1016289
15:00+24юз2391100 4.4 1014293
18:00+23юз3393100 8.8 1013236
21:00+23з2395100 6.0 1015215
15 августа, пн
пн1500:00+23юз239391 11.6 1015206
03:00+23юз229288 1.3 1013102
06:00+23юз239089 2.0 1013156
09:00+24зюз348886 0.8 1014327
12:00+26з448152 2.7 1014536
15:00+26з558071 2.4 1012699
18:00+25з4583100 2.8 1011570
21:00+24зюз4587100 0.5 1013346
16 августа, вт
вт1600:00+24зюз349099 2.4 1013213
03:00+24з3485100 1.8 1012267
06:00+24з3485100 1.8 1012319
09:00+24з3586100 1.2 1013360
12:00+25зсз458481 5.1 1014478
15:00+25з4684100 2.7 1012572
18:00+25з458646 4.8 1012499
21:00+24зюз4588100 2.8 1013323